Location: Augustenthal
(51.7167°N, 10.2833°E)
Time: 21:20:58
(UTC+00:00)

Nadezhda 1 Rocket - Pass Details

Date: 18 May 2021
Orbit: 940 x 1006 km, 83.0° (Epoch: 23 June)

Event Time Altitude Azimuth Distance (km) Brightness Sun altitude
Exits shadow 20:38:44 - 189° (S) 3,610 6.6 -10.8°
Reaches altitude 10° 20:41:04 10° 189° (S) 2,731 5.9 -11.0°
Maximum altitude 20:47:20 87° 278° (W) 980 4.0 -11.6°
Drops below altitude 10° 20:53:33 10° 10° (N) 2,704 7.0 -12.1°
Sets 20:56:03 0° 11° (N) 3,646 7.8 -12.3°
